RH
6 7 8 9 10 12 14 17 20 24 28 35 42 48 48 47 49 55 63 72 78 82 84 85 85 85 85 85 85 85 85 84 84 84 84 84 83 82 81 81 83 84 86 86 86 86 86 86 86 86 86 86 86 86 86 86 86 85 85 85 85 85 85 85 85 85 85 85 85 86 86 86 86 86 86 86 86 86 86 86 86 87 87 87 87 87
4 4 5 6 8 9 10 13 15 18 21 25 32 41 49 50 48 45 44 50 58 67 75 80 83 84 84 83 83 83 83 83 83 83 83 83 82 82 81 80 80 82 83 84 84 85 85 85 85 85 85 85 85 85 85 85 85 85 85 85 85 85 85 85 85 85 85 85 85 85 85 85 85 86 86 86 86 86 86 86 87 87 87 87 87 87
2 3 3 4 5 6 7 9 11 13 16 18 22 27 35 43 47 48 47 44 44 48 56 64 71 76 78 78 78 78 78 78 79 79 79 79 79 79 78 78 78 78 78 79 79 79 77 80 82 83 84 84 85 85 85 85 85 85 85 85 85 85 85 85 85 85 85 85 85 85 85 85 85 85 86 86 86 86 86 86 86 87 86 86 86 86
2 2 2 2 3 3 4 5 7 9 11 13 16 18 22 28 34 39 44 44 43 43 44 49 55 61 66 68 69 70 70 70 70 71 72 72 73 73 72 72 71 71 72 72 72 71 67 68 70 73 76 78 80 81 82 83 83 83 84 84 84 84 84 84 83 83 83 82 82 82 82 82 83 83 84 85 85 85 86 86 86 86 86 86 85 85
2 2 2 2 2 2 2 3 3 5 6 8 10 13 15 18 22 26 30 34 37 40 41 42 45 49 53 56 59 60 61 60 60 60 61 62 62 63 63 62 61 60 60 62 63 64 63 60 59 59 61 65 69 72 74 76 77 77 78 79 80 80 81 81 81 80 80 79 79 79 78 78 77 77 78 79 81 82 83 83 83 83 83 83 83 82
3 2 2 2 2 1 1 1 2 2 3 4 5 7 9 11 14 16 19 22 26 29 32 35 37 40 42 44 47 48 49 49 49 49 49 49 49 49 50 49 49 48 48 48 50 51 54 55 54 51 49 51 54 58 61 64 66 68 69 71 72 74 75 75 76 76 76 76 75 75 74 73 72 71 71 71 73 74 75 76 76 77 77 77 77 76
3 3 2 2 2 1 1 1 1 1 1 1 2 3 4 5 7 9 11 13 15 18 20 23 25 27 30 32 33 34 35 36 36 36 36 36 36 36 36 36 36 36 36 36 36 38 40 43 45 45 43 42 43 45 47 50 51 53 55 57 59 61 63 65 66 67 68 69 69 69 68 68 67 66 65 64 64 64 64 65 65 67 68 68 68 67
3 3 2 2 2 2 1 1 1 1 1 1 1 1 1 2 2 3 4 6 7 9 10 12 13 15 17 18 19 20 21 22 22 23 23 23 24 24 24 24 24 25 25 26 26 27 28 30 33 35 36 36 36 37 38 38 39 40 41 43 44 46 49 51 53 55 57 59 60 60 61 61 60 59 59 58 57 56 55 54 54 55 57 58 59 58
4 3 3 2 2 2 2 1 1 1 1 1 1 1 1 1 1 1 1 1 2 3 3 4 5 6 7 8 8 9 10 10 11 12 12 13 13 14 15 15 16 17 18 18 19 20 21 23 24 26 29 30 32 32 33 33 33 33 33 34 34 35 37 39 41 43 45 47 49 50 51 52 52 53 52 52 51 50 48 47 47 47 47 49 50 51
4 3 3 3 2 2 2 2 1 1 1 1 1 1 1 1 1 0 0 1 1 1 1 1 1 1 2 2 3 3 4 5 5 6 7 7 8 9 10 11 12 13 14 15 16 17 18 19 20 22 23 25 26 28 29 29 29 29 29 29 29 29 30 31 32 34 35 37 39 41 42 44 45 46 46 46 46 45 44 43 42 41 41 42 43 45
4 4 3 3 3 2 2 2 2 1 1 1 1 1 1 1 1 1 1 1 1 0 0 1 1 1 1 1 2 2 3 3 4 4 5 6 7 8 8 10 10 11 12 13 14 16 17 18 19 20 21 21 23 24 25 25 26 26 26 26 26 26 26 27 27 28 29 31 32 34 35 37 38 39 40 41 41 41 40 40 39 38 38 38 39 40
5 4 4 3 3 3 2 2 2 2 2 1 1 1 1 1 1 1 1 1 1 1 1 1 1 1 1 1 2 2 2 3 3 4 5 5 6 7 8 9 10 11 12 13 14 15 16 17 18 19 19 20 20 21 21 22 22 23 23 23 23 23 24 24 25 25 26 27 28 29 30 32 33 34 35 36 36 37 37 37 37 36 36 36 36 37
5 5 4 4 3 3 3 3 2 2 2 2 2 1 1 1 1 1 1 1 1 1 1 1 1 1 1 1 2 2 2 2 3 3 4 5 5 6 7 8 9 10 11 12 13 14 15 16 17 18 18 19 19 19 20 20 20 20 21 21 21 21 21 22 22 23 23 24 25 26 27 28 29 30 31 31 32 33 34 34 34 35 35 35 35 35
6 5 4 4 4 3 3 3 3 2 2 2 2 2 2 2 2 1 1 1 1 1 1 1 1 1 2 2 2 2 3 3 3 3 4 4 5 6 7 8 9 10 10 12 12 13 15 16 17 17 18 18 19 19 19 20 20 20 20 20 20 20 20 20 21 21 22 22 23 24 25 26 26 27 28 28 29 30 31 31 32 32 33 33 33 33
6 5 5 4 4 4 3 3 3 3 3 2 2 2 2 2 2 2 2 2 2 2 2 3 3 3 3 3 3 4 4 5 5 5 6 6 6 7 8 9 10 10 11 12 12 13 14 15 16 16 17 18 19 19 20 20 21 21 21 21 21 21 21 21 21 21 21 22 22 23 23 24 25 26 26 27 27 28 29 29 30 30 31 31 31 31
7 6 5 5 4 4 4 3 3 3 3 3 2 2 2 3 2 2 3 3 3 3 3 3 3 3 3 4 5 5 6 6 7 7 7 7 8 8 9 10 11 12 13 13 13 14 14 15 15 16 17 18 18 19 20 21 22 23 23 23 24 24 24 23 23 23 23 23 24 24 24 25 25 26 26 27 27 28 28 29 29 30 30 30 30 30
7 6 5 5 5 4 4 4 3 3 3 3 3 3 3 3 3 2 3 3 3 3 3 3 4 4 3 4 4 5 6 6 6 6 6 6 6 7 8 10 11 12 13 14 15 15 16 17 17 17 18 19 19 20 21 22 23 24 25 25 26 26 27 27 27 27 27 27 27 27 27 27 27 27 28 28 28 29 29 29 30 30 30 30 30 30
7 7 6 5 5 5 4 4 4 4 3 3 3 3 3 3 3 3 3 3 3 3 3 3 3 3 3 3 4 4 5 5 4 4 4 4 4 5 7 8 9 10 11 12 13 14 15 16 17 18 19 20 21 22 23 23 24 25 25 26 27 27 28 29 30 30 31 31 31 31 31 31 31 31 30 30 30 30 30 30 30 31 31 31 31 31
8 7 6 6 5 5 5 5 4 4 4 4 4 4 3 3 3 3 3 3 3 4 4 4 4 4 4 3 4 4 5 4 4 3 4 3 3 4 5 5 6 7 8 9 10 11 12 13 15 17 18 20 22 23 24 25 25 26 26 27 27 28 29 30 31 32 33 33 34 34 34 34 34 33 33 33 32 32 32 32 32 32 32 32 32 32
8 8 7 6 6 6 5 5 5 5 5 5 4 4 4 4 4 4 4 4 4 4 4 4 4 4 4 4 4 4 5 4 4 4 4 4 3 3 4 4 4 4 5 5 6 7 8 10 11 13 16 19 21 23 25 26 27 28 28 29 30 30 31 32 33 34 35 35 36 36 36 36 36 36 35 35 35 34 34 34 34 34 34 34 33 33
9 8 8 7 7 6 6 6 6 6 6 5 5 5 5 5 5 5 5 5 5 5 5 5 5 6 6 6 6 6 6 5 5 5 5 5 4 4 4 4 4 3 3 3 4 5 5 6 7 9 11 14 17 20 23 25 27 29 30 32 33 33 34 35 35 36 37 37 38 38 38 38 38 38 37 37 37 36 36 36 36 36 36 36 35 35
9 9 8 8 7 7 7 7 7 7 7 6 6 6 6 6 6 6 6 6 6 6 7 7 7 7 7 8 7 7 7 7 7 7 6 6 6 6 6 5 5 4 4 4 4 4 4 4 4 5 6 8 11 13 17 20 23 26 29 32 34 36 37 38 39 39 39 39 40 40 40 40 40 39 39 39 39 39 39 39 39 39 39 39 38 38
10 9 9 8 8 8 8 8 8 8 8 7 7 7 7 7 7 7 8 8 8 8 8 9 9 9 9 9 9 9 9 9 9 8 8 8 8 8 8 7 7 7 6 6 5 5 5 4 4 4 4 5 6 7 9 12 15 19 23 28 32 36 39 41 42 43 43 43 42 42 42 42 41 41 41 41 41 42 42 42 42 42 42 42 42 42
10 10 10 9 9 9 9 9 9 9 9 9 9 9 9 9 9 9 9 9 10 10 10 10 10 10 10 10 10 10 10 10 10 10 10 10 10 10 10 9 9 9 8 8 8 7 7 6 6 5 5 5 5 5 5 6 9 11 15 19 25 30 35 39 42 45 46 47 47 47 46 45 45 44 44 44 44 44 44 44 44 45 45 45 45 45
11 10 10 10 10 10 10 10 10 10 10 10 10 10 10 10 10 10 10 10 10 11 11 11 11 11 11 11 11 11 11 11 11 12 12 11 11 11 11 11 11 10 10 10 10 9 9 8 8 7 7 6 6 5 5 5 5 6 8 11 14 19 24 30 35 40 44 48 50 51 51 51 50 50 49 48 48 47 47 47 47 47 48 48 48 48
11 11 11 11 11 11 11 11 11 11 11 11 11 11 11 11 11 11 12 12 12 12 12 12 12 12 12 12 12 13 13 13 13 13 13 13 13 13 13 13 12 12 12 12 11 11 11 10 10 9 9 8 8 7 6 6 5 5 5 6 8 10 13 18 23 29 35 40 45 49 51 53 54 54 54 54 53 53 52 52 51 51 51 51 51 52
11 11 12 12 12 12 12 12 12 12 12 12 12 12 12 13 13 13 13 13 13 13 13 13 13 13 13 13 14 14 14 14 15 15 15 15 15 15 15 15 15 15 14 14 14 13 13 12 12 11 11 10 10 9 9 8 7 7 6 6 6 7 8 10 14 18 23 29 35 41 46 50 53 55 57 57 58 58 57 57 56 56 56 56 56 56
11 12 12 13 13 13 14 14 14 14 14 14 14 14 14 14 14 14 14 14 14 14 14 14 14 15 15 15 15 16 16 16 16 16 16 16 16 16 17 17 17 17 17 16 16 16 15 15 14 14 13 13 12 12 11 10 10 9 8 8 7 7 7 8 9 11 15 19 25 30 36 41 46 51 55 57 59 60 60 60 60 60 60 60 60 60
12 12 13 14 14 14 15 15 15 15 15 15 15 15 15 15 15 15 15 15 15 16 15 16 16 16 16 16 17 17 17 17 17 17 17 18 18 18 18 18 19 19 19 18 18 18 18 17 17 16 16 15 15 14 13 13 12 11 11 10 9 8 8 8 8 8 10 12 15 19 24 30 35 41 47 51 55 58 60 61 62 62 63 63 64 64
13 13 14 14 15 15 15 16 16 16 16 16 16 16 16 16 16 17 17 17 17 17 17 17 17 17 18 18 18 18 18 18 18 18 19 19 19 19 20 20 20 21 20 20 20 20 19 19 19 18 18 17 17 16 16 15 15 14 13 12 11 11 10 9 9 8 8 9 10 11 14 18 23 28 34 41 47 52 56 59 61 63 64 65 66 67
14 14 15 15 16 16 16 16 17 17 17 17 17 17 18 18 18 18 18 18 18 19 18 18 19 19 19 19 19 19 20 20 20 20 20 21 21 21 22 22 22 22 22 22 21 21 21 21 21 21 20 20 19 19 18 18 17 16 15 15 14 13 12 11 11 10 9 9 8 8 9 10 13 16 21 27 34 41 48 54 58 62 65 66 68 69
15 16 16 16 17 17 17 17 18 18 18 18 18 19 19 19 19 19 20 20 20 20 20 20 20 20 21 21 21 21 21 22 22 22 22 22 23 23 23 23 24 24 24 24 24 23 23 22 22 22 22 22 21 21 20 20 19 18 18 17 16 16 15 14 13 12 11 11 10 9 9 9 9 10 12 16 21 27 34 42 49 56 61 65 68 70
17 17 17 18 18 18 18 18 18 19 19 19 20 20 20 20 21 21 21 21 21 21 22 22 22 22 22 22 23 23 23 24 23 23 24 24 25 25 25 25 25 26 26 26 26 25 25 24 24 24 24 23 23 22 22 22 21 21 20 19 19 18 17 17 16 15 14 13 12 11 10 10 9 9 9 10 12 15 20 26 34 41 49 56 61 66
18 18 18 18 18 18 19 19 19 20 20 20 21 21 21 22 22 22 22 23 23 23 23 23 24 24 24 24 24 25 25 25 25 25 25 26 27 27 27 27 27 27 28 28 28 27 27 26 26 26 25 25 25 24 24 23 23 22 22 21 21 20 20 19 18 17 17 15 14 13 12 12 11 10 10 10 10 11 12 15 19 25 32 40 47 54
18 19 19 19 19 19 19 20 20 21 21 22 22 22 23 23 23 24 24 24 24 25 25 25 25 26 26 26 26 26 27 27 27 27 27 28 29 29 30 30 30 30 29 29 29 29 29 29 28 28 27 26 26 26 25 25 24 24 23 23 23 22 22 21 20 20 19 18 17 16 15 14 13 12 11 11 11 11 11 12 13 15 19 24 31 38
19 19 19 19 19 19 20 20 21 22 22 23 23 24 24 24 25 25 25 26 26 26 27 27 27 27 28 28 29 29 29 29 29 29 30 30 31 32 32 32 32 32 32 32 32 31 31 31 31 30 29 29 28 28 27 26 26 25 25 25 24 24 23 23 22 22 21 20 19 18 17 16 15 14 13 12 12 12 12 12 12 12 13 16 19 24
19 19 19 19 20 20 20 21 22 23 23 24 25 25 26 26 26 27 27 28 28 28 29 29 29 30 30 30 31 31 32 32 32 32 32 32 33 34 34 35 35 35 35 35 34 34 34 34 33 33 32 31 31 30 30 29 28 27 26 26 26 25 25 24 24 23 23 22 21 20 19 18 17 16 15 14 14 13 13 13 13 13 13 13 15 17
20 20 19 20 20 20 21 22 23 24 25 25 26 26 27 28 28 29 29 30 30 31 31 31 32 32 33 33 33 34 34 34 34 34 35 35 35 35 36 37 37 37 37 37 37 36 36 36 36 35 35 35 34 34 33 32 31 30 29 28 27 26 26 26 25 25 24 24 23 22 22 21 19 18 17 16 16 15 14 14 14 14 14 14 15 15
20 20 20 20 20 20 21 22 23 25 26 26 27 28 29 30 30 31 32 32 33 33 34 34 34 35 35 35 36 36 36 36 36 36 36 36 37 37 37 38 38 38 38 38 38 38 38 38 38 38 38 37 37 37 36 35 34 33 32 31 30 29 28 27 26 26 26 25 25 24 23 23 22 20 19 18 18 17 16 16 15 15 16 16 16 16
21 20 20 20 20 21 22 23 24 26 27 28 29 30 31 31 32 33 34 35 35 36 36 37 37 38 38 38 39 39 39 39 38 38 38 38 38 38 38 39 39 39 39 39 40 40 40 40 40 40 39 39 39 39 39 38 37 36 35 34 33 31 30 29 28 27 27 26 26 25 25 24 23 22 21 21 20 19 18 17 17 17 17 17 18 18
22 21 21 21 21 22 23 24 25 27 28 29 30 31 32 33 34 35 36 37 38 39 40 40 40 41 41 41 41 41 40 40 40 39 39 39 38 38 38 39 39 39 40 40 41 41 41 41 41 41 41 41 41 41 41 40 39 39 38 36 35 34 33 31 30 29 28 28 27 27 26 26 25 24 23 23 22 21 20 19 19 18 18 18 18 19
23 23 22 22 22 23 24 25 26 28 29 30 31 33 34 35 37 38 40 41 42 42 43 43 43 44 44 43 43 42 42 41 41 40 40 39 39 38 38 39 39 39 40 41 41 42 42 42 42 42 42 42 42 41 41 41 41 40 39 38 37 36 35 34 32 31 30 29 28 28 27 27 26 26 25 25 24 23 22 21 20 20 19 18 18 18
25 24 24 24 24 24 25 26 27 29 30 31 33 34 36 38 40 41 43 44 45 46 46 46 46 46 46 46 45 44 43 42 41 41 40 39 39 39 39 39 39 39 40 41 41 42 42 42 43 43 43 42 42 42 42 42 41 40 40 39 38 37 36 35 34 32 31 30 30 29 28 28 27 27 27 26 26 25 24 23 22 21 20 19 19 19
27 26 26 25 25 26 26 27 29 30 31 33 35 37 39 41 43 45 46 47 48 48 48 48 48 48 48 47 46 45 44 43 42 41 40 40 39 39 39 39 39 39 40 40 41 41 42 42 43 43 43 43 43 42 42 42 41 41 40 39 38 38 37 36 35 33 32 31 31 30 29 29 28 28 28 27 27 27 26 25 24 23 22 21 20 19
29 29 28 27 27 27 28 29 30 32 34 35 38 40 42 44 46 48 50 51 51 51 51 50 50 49 49 48 48 47 46 44 43 42 41 40 40 40 40 40 40 40 40 40 40 41 41 42 43 43 43 43 43 43 43 42 41 41 40 40 39 38 37 36 35 34 33 32 32 31 30 30 29 29 29 28 28 28 27 26 26 25 23 22 21 20
32 31 30 30 30 30 30 32 33 35 37 39 42 44 46 48 50 52 53 53 53 53 52 51 51 51 51 50 49 48 47 46 45 43 43 42 41 41 41 41 41 40 40 40 40 40 41 42 42 43 43 43 43 43 43 42 42 41 41 40 39 38 37 36 35 35 34 33 32 32 31 31 30 30 29 29 29 28 28 27 27 26 24 23 21 20
34 34 33 33 33 33 34 35 37 39 42 44 47 49 51 52 54 55 55 55 55 54 53 52 52 51 51 50 50 49 49 48 47 45 44 43 43 43 42 42 42 41 41 41 41 41 41 42 42 43 43 43 43 43 43 43 42 42 41 41 40 39 38 37 36 35 34 34 33 32 32 32 31 31 30 29 29 28 28 28 27 26 25 23 22 21
36 36 36 36 36 37 38 40 42 45 47 50 52 54 55 56 57 58 58 57 56 55 54 53 52 52 51 51 51 50 50 49 48 47 46 46 45 45 44 43 43 42 42 42 42 42 42 42 43 43 44 44 44 44 44 43 43 43 42 41 40 39 38 38 37 36 35 34 34 33 33 32 32 31 30 29 29 28 28 27 27 26 25 23 22 21
38 38 38 39 40 41 43 45 48 50 53 55 57 58 59 59 59 59 59 58 57 55 54 53 52 52 52 51 51 51 51 50 50 49 48 48 47 47 46 45 44 44 43 43 42 42 42 43 43 43 44 44 45 45 44 44 44 44 43 42 41 40 39 38 37 36 35 35 34 34 33 33 32 31 30 29 28 27 26 26 26 25 24 23 21 20
41 41 41 42 43 45 48 50 53 56 58 60 61 62 62 62 61 60 59 58 56 55 54 53 52 52 52 52 52 52 51 51 51 50 50 49 48 48 47 46 45 45 44 44 43 43 43 43 43 44 44 44 45 45 45 45 45 45 44 43 42 41 40 39 38 37 36 35 35 34 33 32 31 30 29 27 26 25 24 24 23 23 23 21 20 18
44 44 44 46 48 50 52 55 58 61 63 65 65 65 64 63 62 60 59 57 56 54 53 52 52 53 53 53 53 53 52 52 52 51 51 50 49 49 48 47 46 46 45 45 44 44 44 44 45 45 45 45 45 45 46 47 46 46 45 44 43 41 40 39 38 37 36 35 34 34 33 31 30 28 27 25 24 23 21 21 20 20 20 19 18 17
Wind_Speed
71 74 75 77 78 79 80 80 79 79 79 78 78 78 78 79 78 78 77 77 76 75 74 74 74 74 74 73 72 71 71 70 70 69 69 69 70 70 71 69 68 66 65 65 64 65 66 67 68 68 68 67 67 67 67 67 66 65 63 61 59 58 58 58 58 58 59 59 61 62 63 65 66 67 67 67 68 68 69 70 71 72 73 74 75 75
63 67 70 72 74 76 78 79 80 80 80 80 80 80 80 80 81 81 81 80 80 79 79 78 79 79 79 79 79 78 78 77 77 76 75 74 74 74 75 75 74 73 71 69 68 68 68 69 70 70 70 69 69 69 68 67 66 65 64 62 61 60 59 59 59 59 59 59 60 60 61 62 63 64 65 66 66 67 69 70 71 72 73 74 75 76
56 60 63 66 68 71 74 76 77 78 79 80 81 81 81 81 82 82 82 82 82 82 82 82 82 82 83 83 84 84 84 84 83 83 82 80 79 79 80 80 81 81 79 77 74 73 73 74 75 75 75 74 73 73 73 72 71 69 68 67 66 65 64 64 63 63 62 62 62 62 62 63 63 64 65 65 66 67 69 71 72 73 74 75 75 76
51 54 57 59 62 65 68 71 73 75 77 78 80 81 81 82 82 83 83 83 83 83 84 84 84 85 86 86 87 87 87 88 88 88 88 87 86 85 84 85 85 86 86 85 82 79 78 78 80 81 81 80 80 79 79 78 77 76 75 73 72 72 71 70 69 69 68 67 67 67 66 66 66 67 67 67 67 68 69 71 73 74 75 76 76 76
47 49 52 54 57 59 62 65 67 70 72 74 77 78 80 81 82 83 83 84 84 84 85 85 85 86 87 88 89 89 90 90 90 91 91 90 90 89 88 88 88 89 90 89 88 85 83 83 84 85 86 86 86 85 84 84 84 83 82 81 79 78 78 77 76 75 75 74 73 73 73 72 72 72 72 72 71 72 72 74 75 76 77 78 78 78
45 47 48 50 52 54 56 58 61 63 66 69 71 73 76 77 79 81 82 83 84 84 85 85 86 86 87 88 89 89 90 90 91 91 91 91 91 90 90 90 90 90 90 90 90 89 87 86 86 87 89 89 90 89 89 88 88 88 88 87 86 84 83 83 82 81 81 80 79 79 79 79 79 79 78 77 77 77 78 79 80 80 81 81 82 82
44 44 46 47 48 50 51 53 55 57 60 62 64 67 69 71 73 75 77 79 80 82 83 84 85 85 86 87 88 88 89 89 90 90 90 90 90 90 89 89 89 89 89 89 89 89 88 87 87 88 89 90 91 91 90 90 90 89 89 89 88 87 87 86 85 85 85 84 84 83 83 83 83 83 82 82 81 81 82 83 84 84 84 84 85 85
43 43 43 44 45 46 47 48 50 51 53 55 57 59 61 63 65 68 70 72 74 75 77 78 80 81 82 83 84 85 85 86 86 86 86 86 86 86 86 85 85 85 85 85 86 86 86 86 86 87 88 89 90 91 90 90 89 89 88 88 87 87 86 86 85 85 85 85 85 85 84 84 84 84 84 83 83 83 83 84 85 85 85 85 86 86
42 42 42 41 42 43 43 44 45 46 48 49 51 53 54 56 57 59 61 63 64 66 68 69 71 72 74 75 76 77 77 78 79 79 79 79 79 79 79 79 79 79 79 79 80 80 81 82 82 83 84 86 87 88 89 88 88 87 86 85 85 84 84 83 83 83 83 83 83 83 83 83 83 83 83 82 82 82 82 82 83 83 84 84 85 85
41 41 40 40 39 39 40 40 41 41 42 43 45 46 47 49 50 51 52 54 55 56 58 59 61 62 63 64 65 66 67 68 68 69 69 70 70 70 71 71 71 71 72 72 73 74 74 75 76 78 79 81 82 84 85 86 85 85 84 83 82 82 81 80 79 79 79 79 79 79 80 80 80 80 80 80 79 79 79 79 79 79 80 81 82 83
40 39 39 38 37 37 37 37 37 37 37 38 39 40 41 42 43 44 45 46 47 48 49 50 52 53 54 55 56 57 58 58 59 60 61 61 62 62 63 63 64 64 65 66 66 67 68 69 70 71 73 74 76 78 80 81 82 82 81 81 80 79 78 78 77 76 75 74 74 74 75 75 75 76 76 76 76 75 75 74 74 75 75 76 77 79
40 38 37 36 36 35 34 34 34 34 34 34 35 36 36 37 37 38 40 41 41 42 42 44 45 46 47 48 49 50 51 52 53 54 55 55 56 57 57 58 59 59 60 60 61 62 62 63 64 65 66 68 69 71 73 74 76 77 77 77 77 77 76 75 74 74 73 72 71 70 70 70 70 70 71 71 71 71 70 70 70 70 70 71 71 73
39 38 37 35 34 33 32 32 31 31 31 31 31 32 32 32 32 33 34 35 36 36 37 38 39 40 41 42 43 44 45 47 48 49 50 51 52 52 53 54 55 56 56 57 57 58 58 58 59 60 61 62 63 64 66 67 69 70 71 72 73 73 73 72 72 71 71 70 69 68 67 67 66 66 66 66 66 65 65 65 65 65 65 66 66 67
39 37 36 35 33 32 31 30 29 29 28 28 28 28 28 28 29 29 30 31 31 31 32 33 34 35 36 36 38 39 40 42 43 44 45 46 47 48 49 50 51 52 52 53 53 54 54 55 55 56 57 57 58 59 60 61 62 63 64 66 66 67 68 68 68 68 68 68 67 67 66 65 64 64 63 62 62 61 61 61 61 61 61 61 62 62
39 37 36 34 33 31 30 29 28 27 27 26 26 26 26 26 26 26 26 27 27 28 28 29 30 31 31 32 33 34 35 37 38 39 40 41 41 42 43 45 46 47 48 48 49 50 51 51 52 53 53 54 54 55 55 56 57 58 58 59 60 61 62 63 63 63 64 64 63 63 63 62 62 61 60 60 59 59 58 58 58 58 58 58 58 58
38 37 35 34 32 31 29 28 27 26 26 25 25 24 24 24 24 24 24 25 25 25 26 26 27 28 29 29 30 31 32 33 35 36 37 37 38 38 39 41 42 43 44 45 46 47 47 48 49 49 50 51 51 52 52 53 53 54 54 55 56 56 57 57 58 58 58 59 59 59 59 58 58 58 57 57 57 56 56 56 56 55 55 55 55 55
38 37 35 34 32 30 29 28 27 26 25 25 24 24 24 24 23 23 23 24 24 24 24 24 25 26 27 28 28 29 30 32 33 34 35 35 36 36 37 38 40 41 42 42 43 44 45 46 46 47 47 48 49 49 50 50 51 52 52 53 53 53 54 54 54 54 55 55 55 55 55 55 55 55 55 55 55 55 54 54 54 54 54 53 53 53
38 37 35 34 32 30 29 28 27 26 25 25 24 24 24 23 23 23 23 23 23 23 24 24 24 25 26 27 27 28 28 30 32 33 33 34 34 35 35 37 38 40 41 41 42 43 44 44 45 46 46 46 47 48 48 49 49 50 50 51 51 52 52 52 52 52 53 53 53 53 53 53 53 53 53 53 53 53 53 53 53 52 52 52 51 51
38 36 35 33 32 30 29 28 27 26 26 25 24 24 24 23 23 23 23 23 23 23 23 23 24 24 25 26 27 27 27 29 30 31 32 33 33 33 34 35 37 38 39 40 41 42 43 44 44 45 45 46 46 47 47 48 48 48 49 49 49 50 50 50 51 51 51 51 51 52 52 52 52 52 52 52 52 52 51 51 51 51 51 50 50 50
38 36 35 33 32 30 29 28 27 27 26 25 25 24 24 23 23 23 23 23 23 23 23 24 24 24 24 25 26 26 26 27 29 30 30 31 32 32 32 33 35 36 37 38 39 40 41 42 43 43 44 45 46 46 47 47 47 48 48 48 48 48 49 49 49 49 50 50 50 50 50 50 50 50 50 50 50 50 50 50 50 49 49 49 49 49
37 36 35 33 32 30 29 28 28 27 26 26 25 25 24 24 24 23 23 23 23 23 23 24 24 24 24 25 26 26 26 27 28 29 29 30 31 31 31 32 33 34 35 36 36 37 38 39 40 41 42 43 44 45 46 46 47 47 47 47 47 47 47 48 48 48 48 48 49 49 49 49 49 49 49 49 49 49 49 49 49 49 49 49 48 48
37 36 34 33 32 31 30 29 28 27 27 26 25 25 25 24 24 24 24 24 24 24 24 23 24 24 25 25 26 26 26 27 27 28 29 29 30 30 31 31 32 33 34 35 35 35 36 36 37 38 39 41 42 43 44 45 46 46 47 47 47 47 47 47 47 47 47 48 48 48 48 48 48 48 48 48 49 48 49 49 49 49 49 48 48 48
37 35 34 33 32 31 30 29 28 28 27 26 26 26 25 25 25 25 24 24 24 24 24 24 25 25 25 26 26 26 27 27 28 28 29 29 29 30 31 31 32 33 33 34 34 35 35 35 35 36 37 38 39 41 42 43 44 45 46 46 47 47 47 47 47 47 47 47 48 48 48 48 48 48 48 48 49 49 49 49 49 49 49 49 49 48
37 35 34 33 32 31 30 30 29 28 27 27 26 26 26 26 26 26 25 25 25 25 25 25 26 26 26 26 27 27 27 28 28 29 29 29 30 30 31 31 32 33 33 34 34 34 35 35 35 35 36 36 37 38 39 40 42 43 44 45 46 47 47 47 48 48 48 48 48 48 48 48 49 49 49 49 49 49 49 50 50 49 49 49 49 49
36 35 34 33 32 32 31 30 29 28 28 27 27 27 27 27 27 27 26 26 26 26 26 26 26 26 27 27 27 28 28 28 29 29 29 30 30 31 31 32 32 33 33 34 34 34 35 35 35 35 35 36 36 37 37 38 39 40 41 42 44 45 46 47 47 48 48 48 48 48 49 49 49 49 50 50 50 50 50 50 50 50 50 50 50 50
36 35 34 33 32 32 31 30 29 29 28 28 28 28 27 27 27 27 27 27 27 27 27 27 27 27 28 28 28 28 29 29 29 30 30 30 31 31 31 32 32 33 33 34 34 34 35 35 35 35 35 35 36 36 36 36 37 37 38 39 41 42 43 44 45 46 47 47 48 48 48 49 49 49 50 50 50 51 51 51 51 51 51 51 51 51
36 35 34 33 33 32 31 30 30 29 29 29 28 28 28 28 28 27 27 27 28 28 28 28 28 29 29 29 29 29 29 30 30 30 31 31 31 32 32 33 33 33 34 34 35 35 35 35 36 36 36 36 36 36 36 36 36 36 36 37 37 38 40 41 42 43 44 45 46 46 47 47 48 48 49 49 50 50 51 51 51 51 51 51 51 51
35 34 34 33 33 32 31 31 30 30 30 29 29 29 29 29 28 28 28 28 29 29 29 29 29 29 30 30 30 30 30 30 31 31 32 32 32 32 33 33 34 34 34 35 35 36 36 36 36 37 37 37 37 37 36 36 36 36 36 36 36 36 37 38 39 40 41 42 43 44 45 45 46 46 47 47 48 48 49 50 50 50 51 51 51 51
35 34 34 33 33 32 32 31 31 30 30 30 30 29 29 29 29 29 29 29 29 29 29 30 30 30 31 31 31 31 31 31 32 32 33 33 33 34 34 35 35 35 35 36 36 37 37 37 38 38 38 38 38 38 38 37 37 37 36 36 36 36 36 36 36 37 38 39 40 41 43 43 44 45 45 46 46 47 47 48 48 49 49 49 50 50
35 35 34 34 33 33 32 31 31 31 30 30 30 30 30 30 30 30 30 30 30 30 30 30 31 31 32 32 32 32 33 33 33 34 34 34 34 35 35 36 36 36 36 36 37 37 38 39 39 39 39 39 39 39 39 39 38 38 38 37 37 37 36 36 36 36 37 37 38 39 40 41 42 43 44 44 45 45 46 46 46 47 47 48 48 48
36 35 35 34 34 33 32 32 31 31 31 31 31 31 31 31 30 30 31 31 31 31 31 31 32 32 33 33 33 33 34 34 34 35 35 35 35 36 36 36 37 37 37 37 37 37 38 39 40 40 40 40 40 40 40 40 40 40 39 39 38 38 37 37 37 37 37 37 37 38 38 39 40 41 42 43 44 44 45 45 45 46 46 46 46 47
36 36 35 35 34 33 33 32 32 32 31 31 31 31 31 31 31 31 31 32 32 32 32 32 33 33 34 34 34 34 35 35 35 36 36 36 36 37 37 37 38 38 38 38 38 38 38 39 40 41 41 41 41 42 42 42 41 41 41 41 40 40 39 39 38 38 38 38 38 38 38 38 39 40 40 41 42 43 44 45 45 45 46 46 46 46
37 36 35 35 34 34 33 33 32 32 32 32 32 32 32 32 32 32 32 33 33 33 33 33 34 34 34 35 35 36 36 36 36 36 37 37 37 38 38 38 39 39 40 40 40 40 39 40 40 41 41 42 42 43 43 43 43 43 42 42 42 41 41 40 40 39 39 39 39 39 39 39 39 39 40 40 41 42 43 44 45 45 46 46 46 46
37 36 36 35 34 34 33 33 33 33 33 32 32 32 33 33 33 33 33 34 34 34 34 34 35 35 35 36 36 36 37 37 37 37 38 38 38 38 39 39 40 40 40 41 41 41 41 41 41 41 42 42 43 44 44 44 44 44 44 44 43 43 43 42 42 41 41 41 41 40 40 40 40 39 40 40 40 41 42 43 44 45 45 46 46 46
37 36 36 35 34 34 34 34 33 33 33 33 33 33 33 33 34 34 34 34 35 35 35 35 36 36 36 37 37 37 38 38 38 38 39 39 39 39 40 40 40 41 41 41 41 42 42 42 42 42 42 43 44 44 45 45 45 45 45 45 45 45 44 44 44 43 43 43 42 42 42 41 41 41 40 40 40 41 41 42 43 44 45 45 46 46
37 36 36 35 34 34 34 34 34 34 34 34 34 34 34 34 34 35 35 35 35 36 36 36 37 37 37 37 38 38 38 39 39 39 40 40 40 40 40 41 41 41 42 42 42 42 42 43 43 43 43 43 44 44 45 46 46 46 46 47 47 46 46 46 45 45 45 44 44 44 43 43 43 42 42 42 42 42 42 42 42 43 44 45 45 46
37 36 36 35 35 34 34 34 34 34 34 34 35 35 35 35 35 35 36 36 36 36 37 37 38 38 38 39 39 39 39 40 40 40 40 41 41 41 41 41 42 42 42 42 42 43 43 43 43 43 44 44 44 44 45 46 46 47 47 47 47 48 48 48 47 47 46 46 46 45 45 44 44 44 44 44 44 43 43 43 43 43 44 44 45 45
37 36 36 35 35 35 35 35 35 35 35 35 35 35 36 36 36 36 37 37 37 37 38 38 38 39 39 39 40 40 40 41 41 41 41 41 42 42 42 42 42 43 43 43 43 43 43 43 43 43 44 44 44 45 45 46 46 47 47 48 48 48 48 49 48 48 48 47 47 47 46 46 45 45 45 45 45 45 45 45 45 45 45 45 45 45
37 36 36 35 35 35 35 35 35 35 35 36 36 36 36 37 37 37 37 38 38 38 39 39 39 40 40 40 41 41 41 41 42 42 42 42 42 42 43 43 43 43 43 43 43 43 43 43 43 44 44 44 44 45 45 46 46 47 47 48 48 48 49 49 49 49 49 49 48 48 47 47 46 46 46 46 46 46 46 47 47 47 47 46 46 46
37 36 36 35 35 35 35 35 35 36 36 36 36 37 37 37 37 38 38 38 39 39 39 40 40 40 41 41 41 42 42 42 42 42 43 43 43 43 43 43 43 43 44 44 44 44 44 44 44 44 44 44 44 45 45 46 46 47 47 47 47 48 49 49 50 50 50 49 49 48 48 47 47 47 46 46 47 47 47 47 48 48 48 48 48 48
37 36 36 36 36 36 36 36 36 36 36 37 37 37 37 38 38 38 39 39 39 40 40 40 41 41 41 42 42 42 42 42 43 43 43 43 43 43 44 44 44 44 44 44 44 44 44 44 45 45 45 45 45 45 45 46 46 47 47 47 47 48 48 49 50 50 50 50 50 49 49 48 47 47 47 47 47 47 48 48 49 49 49 49 49 49
37 37 36 36 36 36 36 36 36 37 37 37 37 38 38 38 38 39 39 40 40 40 41 41 41 41 41 42 42 42 43 43 43 43 43 43 44 44 44 44 44 44 44 44 44 44 45 45 45 45 45 45 45 46 46 46 47 47 48 48 48 48 48 49 50 50 50 50 50 50 49 49 48 48 47 47 48 48 49 49 49 50 50 50 50 50
37 37 37 36 36 36 37 37 37 37 37 38 38 38 39 39 39 39 40 40 40 41 41 41 41 41 41 42 42 43 43 43 43 44 44 44 44 44 44 44 44 44 44 44 45 45 45 45 46 46 46 46 46 46 46 47 47 48 48 48 48 48 48 49 50 50 51 51 51 50 50 49 49 48 48 48 48 49 49 50 50 51 51 51 51 51
38 37 37 37 37 37 37 37 37 38 38 38 38 39 39 39 39 40 40 40 40 41 41 41 41 41 42 42 42 43 43 44 44 44 44 44 45 45 45 45 45 45 45 45 45 45 46 46 46 46 47 47 47 47 47 47 48 48 48 49 49 49 49 49 50 50 51 51 51 51 51 50 50 49 49 49 49 50 50 50 51 52 52 52 52 52
38 38 38 37 37 38 38 38 38 38 39 39 39 39 39 40 40 40 40 40 40 41 41 41 41 41 42 42 43 43 43 44 44 45 45 45 45 45 45 45 45 46 46 46 46 46 46 47 47 47 47 47 47 47 48 48 48 48 49 49 49 49 50 50 50 51 51 51 51 51 51 51 51 50 50 50 50 50 51 51 52 53 53 53 53 53
38 38 38 38 38 38 38 39 39 39 39 39 39 39 40 40 40 40 40 40 40 41 41 41 41 41 42 42 43 43 44 44 44 45 45 46 46 46 46 46 46 46 46 47 47 47 47 47 47 48 48 48 48 48 48 49 49 49 49 49 49 50 50 51 51 51 52 52 52 52 52 52 52 51 51 51 51 51 52 52 53 54 54 54 54 54
39 39 39 39 39 39 39 39 40 40 40 40 40 40 40 40 40 40 40 40 40 40 41 41 41 41 42 42 43 43 43 44 45 45 45 46 46 46 46 47 47 47 47 47 48 48 48 48 48 48 48 48 48 48 49 49 49 49 49 50 50 50 51 51 52 52 52 52 53 53 53 53 53 53 53 53 53 53 53 54 54 55 56 56 56 55
39 39 39 39 40 40 40 40 40 40 40 40 40 40 40 40 40 40 40 40 40 40 41 41 41 41 42 42 43 43 43 44 44 45 45 46 46 46 47 47 47 47 48 48 48 48 49 49 49 49 49 49 49 49 49 49 50 50 50 50 51 51 51 52 52 53 53 53 53 54 54 54 54 54 54 54 54 54 54 55 56 57 57 58 57 57
39 40 40 40 40 40 40 40 40 40 40 40 40 40 40 40 40 40 40 40 40 40 40 41 41 41 42 42 43 43 43 44 44 45 45 46 46 46 47 47 47 48 48 48 49 49 49 49 49 49 50 50 50 50 50 50 50 50 51 51 52 52 52 53 53 54 54 54 54 55 55 55 56 56 57 56 56 56 56 57 57 58 59 59 59 59
40 40 40 40 41 41 41 41 41 41 41 41 40 40 40 40 40 40 40 40 40 40 40 41 41 41 42 42 43 43 43 44 44 45 45 46 46 47 47 47 48 48 49 49 49 49 49 50 50 50 50 51 51 51 51 51 51 51 51 52 52 53 53 54 54 54 55 55 55 56 56 57 58 58 59 59 59 59 59 59 59 60 60 61 61 60
40 41 41 41 41 41 41 41 41 41 41 41 41 40 40 40 39 39 39 40 40 40 41 41 41 41 42 42 43 43 44 44 44 45 45 46 46 47 47 48 48 49 49 49 50 50 50 50 50 50 51 51 52 51 51 51 51 52 52 53 53 54 55 55 55 56 56 56 56 57 58 59 59 60 61 62 62 62 62 62 61 61 62 62 62 61
Wind_Direction
263 262 262 261 261 261 261 261 261 261 260 260 259 258 257 258 258 259 260 261 261 261 260 260 260 261 262 262 263 263 264 264 265 266 266 266 266 267 268 269 269 270 270 269 269 268 268 267 266 265 264 263 262 262 262 262 261 260 259 259 260 260 261 261 260 260 260 259 259 259 259 259 260 260 261 262 263 265 266 266 266 265 264 262 260 258
265 264 263 263 262 261 261 261 260 260 260 260 260 259 259 259 258 258 259 259 260 261 261 261 262 262 263 264 265 265 265 266 266 267 267 267 266 266 266 267 267 268 269 270 269 268 268 267 266 265 264 263 263 262 262 262 262 262 262 262 263 263 264 264 264 263 263 262 262 262 262 261 260 259 259 259 260 261 262 263 262 261 260 259 258 258
268 267 265 264 263 262 262 261 261 260 260 260 260 260 260 260 260 260 260 259 259 259 260 260 261 262 262 263 264 265 265 266 267 268 268 268 267 267 266 266 267 267 269 270 270 269 268 268 267 267 266 266 265 265 265 265 265 265 265 265 266 266 267 267 267 267 267 266 266 266 266 266 265 263 262 260 259 259 260 260 260 259 258 258 258 258
271 269 268 267 265 264 263 262 262 261 261 260 260 260 260 261 261 261 261 261 261 260 260 260 261 261 261 262 263 264 265 265 266 267 268 269 269 268 268 267 267 267 268 270 270 269 268 268 268 268 269 268 268 268 268 268 268 268 268 268 268 268 269 269 270 270 270 270 269 269 269 270 270 270 268 266 264 262 261 260 260 260 260 260 261 262
275 273 271 269 268 266 265 264 263 263 262 261 261 261 261 261 261 261 262 262 262 262 262 262 262 262 262 263 264 264 265 266 267 268 268 269 270 270 269 269 269 268 269 270 271 271 270 269 268 269 270 270 270 270 270 270 270 270 270 270 270 270 270 270 271 271 272 272 272 271 271 272 272 273 273 272 270 268 267 266 265 265 265 265 266 267
278 276 274 272 271 269 268 267 266 265 264 263 263 262 262 262 262 262 262 263 263 263 263 264 264 264 264 264 265 266 266 267 268 269 269 270 271 271 271 271 271 270 270 270 271 271 271 270 269 269 270 271 272 272 272 272 272 273 273 273 273 272 272 272 273 273 273 274 274 274 274 274 274 274 275 275 274 273 273 272 272 272 272 271 271 272
281 279 277 276 274 272 271 270 268 267 266 266 265 264 264 264 264 263 264 264 264 264 265 265 265 265 266 266 267 267 268 268 269 270 270 271 271 272 272 272 272 272 272 271 271 272 271 271 270 269 270 271 272 273 274 274 274 275 275 276 276 276 276 275 275 275 276 276 276 276 276 276 276 277 277 277 277 276 276 277 277 277 277 277 276 277
282 281 280 278 277 275 274 272 271 270 269 268 268 267 267 266 266 266 266 266 266 266 266 266 267 267 267 268 268 269 269 270 270 271 271 272 272 273 273 273 273 273 273 272 272 272 272 271 271 270 270 271 272 273 274 275 276 277 277 278 278 279 279 278 278 278 278 278 278 279 279 279 279 279 279 279 279 279 278 279 279 280 280 280 280 280
283 282 281 280 279 278 276 275 274 273 272 271 271 270 270 269 269 269 268 268 268 268 268 268 269 269 269 269 270 270 271 271 272 272 272 273 273 273 274 274 274 274 273 273 273 273 272 272 272 271 271 271 271 272 274 275 276 277 278 279 279 280 281 281 281 281 281 280 280 280 280 280 281 281 281 281 281 281 281 280 280 280 280 281 281 281
282 283 282 282 281 280 279 278 277 276 275 274 274 273 273 272 272 272 271 271 271 271 271 271 271 271 271 271 272 272 272 273 273 273 274 274 274 275 275 275 275 275 275 275 274 274 274 273 273 272 272 271 271 272 273 274 276 277 278 279 280 280 281 282 282 283 283 282 282 282 282 282 282 282 282 282 282 282 282 282 281 281 280 280 280 280
282 282 282 282 282 281 280 280 279 278 277 277 276 276 275 275 275 274 274 274 274 274 274 274 274 274 274 274 274 274 274 275 275 275 276 276 276 276 277 277 277 277 277 277 276 276 276 275 274 274 273 273 273 273 273 274 275 276 277 278 279 280 281 281 282 283 283 283 283 283 282 282 282 282 282 283 283 283 283 282 282 281 280 280 279 279
281 281 281 281 282 281 281 281 281 280 280 279 278 278 278 277 277 277 277 277 277 277 277 277 277 277 277 277 277 278 277 278 278 278 278 278 279 279 279 279 279 279 279 279 278 278 278 277 277 276 275 275 274 274 274 274 274 275 276 277 278 279 280 280 281 282 282 282 283 283 283 282 282 282 282 282 282 282 282 282 282 281 280 280 279 278
279 280 280 280 281 281 281 281 281 281 281 280 280 280 280 280 280 280 280 280 280 280 280 280 280 280 281 281 281 281 281 281 281 281 281 281 281 281 281 281 281 281 281 280 280 280 279 279 278 278 277 277 276 276 276 275 275 276 276 276 277 278 279 279 280 280 281 281 282 282 282 282 282 282 282 282 282 282 282 282 281 281 280 280 279 279
278 278 279 279 280 280 281 281 281 282 282 282 282 282 282 282 282 282 282 283 283 284 284 284 284 284 285 285 285 285 285 284 284 284 284 283 283 283 283 283 282 282 282 281 281 281 280 280 279 279 279 278 278 278 277 277 277 277 277 277 277 277 278 278 279 279 280 280 281 281 281 282 282 282 282 282 282 282 282 281 281 281 280 280 280 279
277 277 277 278 278 279 280 280 281 281 282 282 282 282 283 283 283 284 284 285 286 287 287 288 288 288 289 289 289 289 288 288 287 287 286 286 286 285 285 284 284 283 283 282 282 281 281 281 280 280 280 279 279 279 279 278 278 278 278 278 278 278 278 278 278 279 279 280 280 280 281 281 282 282 282 282 282 282 282 282 282 281 281 281 281 281
275 276 276 276 277 277 278 279 280 280 281 281 281 282 282 283 284 285 286 287 288 289 290 290 291 292 292 293 293 293 292 291 290 290 290 290 289 289 288 287 286 285 285 284 284 283 283 282 282 281 281 281 280 280 280 280 279 279 279 279 279 279 279 279 279 279 279 280 280 280 281 281 281 282 282 282 282 282 282 282 282 282 282 282 281 281
274 274 274 275 275 276 277 277 278 279 280 280 281 282 283 283 285 286 287 288 290 291 292 293 293 294 295 295 295 295 295 294 294 293 293 294 294 293 292 291 289 289 288 287 287 286 285 285 284 283 283 283 282 282 281 281 280 280 280 280 280 280 280 280 280 280 280 280 280 281 281 281 281 281 281 281 281 281 281 282 282 282 281 281 281 281
272 272 273 273 273 274 275 276 276 277 278 279 280 281 283 284 285 287 288 289 291 292 293 294 295 296 297 298 297 298 298 297 297 297 297 297 298 298 297 295 293 292 291 290 289 288 288 287 286 286 285 285 284 283 283 282 282 281 281 281 280 280 280 280 280 280 280 280 280 280 281 281 281 281 281 281 281 281 281 281 280 280 280 280 280 280
270 271 271 271 272 272 273 274 275 276 277 278 280 281 282 284 285 287 288 290 291 292 294 295 296 298 299 300 300 301 301 301 300 300 300 301 301 301 301 299 297 296 295 294 292 291 290 289 288 288 287 286 286 285 284 284 283 283 282 282 282 281 281 281 281 281 281 280 280 280 280 280 280 280 280 280 280 280 280 280 280 279 279 279 279 279
269 269 269 270 270 271 271 272 273 274 276 278 279 281 282 283 285 286 288 290 291 293 294 296 297 299 300 301 302 302 304 304 303 303 303 304 304 304 304 303 301 299 298 297 296 295 294 292 291 290 289 288 287 286 286 285 285 284 284 284 283 283 283 282 282 282 281 281 281 281 281 281 280 280 280 280 280 280 279 279 279 279 279 279 279 279
267 267 268 268 269 269 270 271 272 273 275 277 278 279 281 283 284 286 287 289 291 292 294 296 297 299 300 301 301 303 304 305 304 305 305 306 306 307 307 306 305 303 302 302 302 301 299 298 296 294 292 291 289 288 287 287 286 286 285 285 285 285 284 284 284 283 283 283 282 282 282 281 281 281 281 280 280 280 280 279 279 279 279 279 279 279
265 266 266 267 267 268 269 270 271 272 274 275 277 278 280 281 283 285 286 288 290 291 293 294 296 297 298 300 301 303 304 305 305 306 307 308 308 309 309 309 308 307 306 307 308 307 306 305 303 300 298 296 294 292 290 289 288 288 287 287 286 286 286 285 285 285 284 284 284 283 283 282 282 282 281 281 281 280 280 280 280 279 279 279 279 279
264 264 265 265 266 267 268 269 270 272 273 274 276 277 279 280 282 283 285 287 288 290 291 293 295 296 297 299 301 302 303 304 305 306 307 308 309 310 310 310 310 310 310 311 312 312 312 311 309 307 305 302 300 298 296 294 292 291 290 289 288 287 287 286 286 286 285 285 285 284 284 283 283 282 282 281 281 280 280 280 280 279 279 279 279 279
262 263 263 264 265 266 267 268 269 270 272 273 274 276 278 279 281 283 284 286 287 289 290 292 293 295 296 298 300 301 302 304 304 306 307 308 309 309 310 310 311 311 312 312 313 314 314 314 314 313 311 309 307 305 303 300 298 296 294 292 290 289 288 287 287 286 286 286 285 285 284 283 283 282 282 281 281 281 280 280 280 279 279 279 279 279
261 261 262 263 264 265 266 267 268 269 270 271 273 274 276 278 280 281 283 285 286 288 290 291 292 294 296 297 299 300 302 303 304 305 306 307 308 309 309 310 311 312 312 313 314 314 314 315 315 315 314 313 312 310 309 307 304 301 299 296 294 292 290 289 288 287 287 286 286 285 285 284 283 283 282 282 281 281 280 280 280 279 279 279 279 279
259 260 260 261 262 264 265 266 267 268 269 270 272 273 275 277 278 280 282 283 285 287 289 290 291 293 295 296 298 299 301 302 303 304 305 306 307 307 308 309 310 311 311 312 313 313 314 314 314 315 315 315 315 314 313 312 310 308 305 302 299 297 294 292 290 289 288 287 287 286 285 285 284 284 283 282 282 281 281 280 280 280 279 279 279 279
258 258 259 260 261 262 264 265 266 267 268 269 271 273 274 276 277 279 281 283 285 286 288 289 291 293 294 296 297 298 299 301 302 302 303 304 305 306 307 308 309 309 310 311 311 312 312 313 314 314 315 315 315 315 315 315 314 313 311 309 306 303 300 297 295 293 291 290 289 288 287 286 286 285 284 284 283 282 282 281 281 280 280 280 279 279
256 257 258 259 260 261 263 264 265 266 267 269 270 272 274 275 277 278 280 282 284 286 287 289 290 292 293 294 296 297 298 299 300 301 302 303 304 304 306 307 307 308 309 309 310 310 311 311 312 313 313 314 314 315 315 316 316 316 315 314 312 310 308 305 302 299 296 294 292 290 289 288 287 286 286 285 284 284 283 282 282 281 280 280 279 279
255 256 257 258 259 261 262 263 264 265 267 268 270 272 274 275 277 278 280 282 283 285 286 288 289 291 292 294 295 296 297 298 299 300 301 302 303 304 305 306 306 307 308 308 309 309 309 310 310 311 311 312 313 313 314 315 315 316 316 316 316 315 314 312 309 306 302 300 297 294 292 291 289 289 288 287 286 285 285 284 283 282 281 280 280 279
254 255 256 257 259 260 261 262 264 265 267 268 270 272 273 275 276 278 280 281 283 284 286 287 289 290 291 293 294 295 296 298 299 300 301 302 302 303 304 305 305 306 307 307 308 308 308 309 309 309 310 310 311 311 312 313 314 315 315 316 316 317 316 316 314 312 309 306 303 300 298 295 293 291 290 289 288 287 286 285 284 283 282 281 281 280
252 254 255 257 258 260 261 262 263 265 266 268 270 271 273 275 276 278 279 281 282 284 285 287 288 290 291 292 294 295 296 297 298 299 300 301 301 302 303 304 304 305 305 306 306 307 307 307 308 308 309 309 309 310 311 311 312 313 313 314 315 316 316 317 316 315 314 312 310 307 304 301 298 296 293 291 290 289 288 286 285 285 284 283 282 281
252 253 254 256 258 259 261 262 263 265 266 268 270 272 273 275 276 278 279 281 282 284 285 287 288 289 291 292 293 294 296 297 298 299 299 300 301 301 302 303 303 304 304 304 305 305 305 306 306 307 307 307 308 308 308 309 310 310 311 312 313 314 315 316 316 316 316 316 314 313 311 308 305 301 298 295 293 290 289 287 286 285 284 283 282 281
251 252 254 256 257 259 260 262 263 265 266 268 270 272 273 275 277 278 280 281 283 284 285 287 288 289 291 292 293 294 295 296 297 298 299 299 300 300 301 301 302 302 303 303 303 303 303 303 304 304 305 305 305 306 306 307 307 308 309 309 310 311 313 314 315 315 316 316 316 316 315 313 311 308 304 301 297 294 291 289 287 286 284 283 282 281
250 252 253 255 257 258 260 262 263 265 267 268 270 272 274 275 277 279 280 282 283 284 285 287 288 289 290 291 292 293 294 295 296 297 298 298 299 299 300 300 300 301 301 301 302 302 302 301 302 302 302 302 303 303 304 304 305 305 306 307 308 309 310 311 312 313 314 315 316 317 317 316 315 313 310 307 303 299 295 292 289 287 285 284 283 282
249 251 253 254 256 258 260 262 264 265 267 269 271 272 274 275 277 278 280 281 283 284 286 287 288 289 290 291 292 293 294 295 296 296 297 297 297 298 298 298 299 299 299 299 300 300 300 300 300 300 300 300 300 301 302 302 303 303 304 305 305 306 307 308 309 310 312 313 314 315 316 317 317 316 314 312 309 305 301 297 294 291 288 286 284 283
249 250 252 254 256 258 260 262 264 266 267 269 271 272 274 276 277 278 280 281 283 284 285 286 287 288 289 290 291 292 293 294 295 295 296 296 296 296 296 297 297 297 297 298 298 298 298 298 298 298 298 298 299 299 300 300 301 301 302 302 303 304 305 306 307 308 309 310 311 313 314 315 316 317 316 315 314 311 307 303 299 296 292 289 287 285
248 250 252 254 255 257 259 262 264 266 268 270 271 273 274 276 277 279 280 281 283 284 285 286 287 288 289 290 291 291 292 293 294 294 294 295 295 295 295 295 295 296 296 296 296 296 296 296 297 297 297 297 297 297 297 298 298 299 299 300 301 301 302 303 304 305 306 307 309 310 312 313 314 315 316 316 316 314 312 309 305 302 298 294 291 288
247 249 251 253 255 257 259 262 264 266 268 270 271 273 274 276 277 279 280 281 282 284 285 286 286 287 288 289 290 291 291 292 292 293 293 293 294 294 294 294 294 295 295 295 295 295 295 295 295 295 296 296 296 296 296 296 296 297 297 298 299 299 300 301 302 303 304 305 306 308 309 311 312 313 314 315 315 315 314 312 310 307 303 300 296 293
247 249 251 253 255 257 259 262 264 266 268 270 271 273 275 276 277 279 280 281 282 283 284 285 286 287 287 288 289 290 290 291 291 292 292 292 293 293 293 293 293 294 294 294 294 294 294 294 294 294 294 295 295 295 295 294 295 295 295 296 296 297 298 299 299 300 301 302 304 305 307 308 310 311 312 313 314 314 313 312 311 309 307 304 300 297
247 249 251 253 255 257 259 262 264 266 268 270 271 273 274 276 277 278 280 281 282 283 284 285 285 286 287 288 288 289 290 290 291 291 292 292 292 292 293 293 293 293 294 294 294 294 294 294 294 294 294 294 294 294 294 294 293 294 294 294 294 295 296 296 297 298 299 300 301 302 304 305 307 308 309 310 311 311 312 311 311 309 308 306 303 300
246 248 250 253 255 257 259 262 264 266 267 269 271 272 274 275 277 278 279 280 281 282 283 284 285 286 286 287 288 289 289 290 290 291 291 291 292 292 292 292 293 293 293 293 294 294 294 294 294 294 294 294 294 293 293 293 293 293 293 293 293 293 294 294 295 296 297 298 299 300 301 303 304 306 307 308 309 309 310 310 309 309 308 306 304 302
246 248 251 253 255 257 259 261 263 265 267 269 270 272 273 275 276 277 278 280 281 282 283 284 285 285 286 287 288 288 289 289 290 290 291 291 291 292 292 292 293 293 293 293 293 294 294 294 294 294 293 293 293 293 293 293 293 293 293 293 293 293 293 293 293 294 295 296 297 298 299 301 302 303 304 305 306 307 308 308 308 308 307 306 304 302
246 249 251 253 255 257 259 261 263 265 267 268 270 271 273 274 275 277 278 279 280 281 282 283 284 285 286 287 287 288 289 289 289 290 290 291 291 292 292 292 293 293 293 294 294 294 294 294 294 293 293 293 293 293 293 293 293 293 293 293 293 293 292 292 292 293 294 294 295 297 298 299 300 301 302 303 304 305 305 306 306 306 306 305 303 302
247 249 251 253 255 257 259 261 263 265 266 268 269 271 272 274 275 276 278 279 280 281 282 283 284 285 286 287 287 288 289 289 289 290 290 291 291 292 292 293 293 294 294 294 294 294 294 294 294 294 294 294 293 293 293 293 293 293 293 293 293 292 292 292 292 292 293 294 295 296 297 298 299 300 301 301 302 303 303 304 304 304 304 304 303 301
247 249 251 253 255 257 259 261 263 264 266 267 269 271 272 273 275 276 277 279 280 281 282 284 284 285 286 287 287 288 289 289 290 290 291 291 292 293 293 293 294 294 294 294 294 294 294 294 294 294 294 294 294 293 293 293 293 293 293 293 293 293 292 292 292 292 292 293 294 295 296 297 298 298 299 300 300 301 302 302 302 303 303 302 302 301
247 249 251 253 255 257 259 261 263 264 266 268 269 270 272 273 275 276 277 279 280 281 282 284 284 285 286 287 288 288 289 289 290 291 291 292 292 293 293 294 294 294 294 294 295 295 295 294 294 294 294 294 294 293 293 293 293 293 293 293 293 293 293 293 293 293 293 293 294 295 295 296 297 297 298 299 299 300 300 301 301 301 301 301 301 300
247 250 252 254 256 257 259 261 263 265 266 268 269 270 272 273 274 276 277 278 280 281 282 283 284 285 286 287 287 288 289 289 290 291 291 292 292 293 293 294 294 294 294 295 295 295 295 295 295 295 295 294 294 294 293 293 293 293 293 293 293 293 293 293 293 293 293 294 294 295 295 296 296 297 297 298 299 299 300 300 300 300 300 300 299 299
248 250 252 254 256 258 260 262 263 265 266 268 269 270 271 273 274 275 277 278 279 281 282 283 284 285 286 287 287 288 289 289 290 290 291 292 292 293 293 294 294 294 295 295 295 295 295 295 295 295 295 295 294 294 294 294 294 294 294 293 293 293 293 293 293 294 294 294 295 295 296 296 296 297 297 298 298 299 299 299 299 299 299 299 299 298
248 251 253 254 256 258 260 262 264 265 266 268 269 270 271 272 274 275 276 278 279 280 282 283 284 285 285 286 287 288 288 289 289 290 291 291 292 293 293 294 294 295 295 295 295 296 296 296 296 296 295 295 295 295 294 294 294 294 294 294 294 294 294 294 294 294 294 295 295 296 296 296 297 297 297 298 298 298 298 298 298 298 298 298 298 297
249 251 253 255 257 259 261 262 264 265 266 267 268 269 271 272 273 275 276 278 279 280 282 283 284 284 285 286 287 288 288 289 289 290 291 291 292 293 293 294 294 295 295 296 296 296 297 297 297 296 296 296 295 295 295 295 295 295 295 295 295 295 295 295 295 295 295 296 296 296 297 297 297 297 298 298 298 298 298 298 298 297 297 297 297 297
250 252 254 256 258 259 261 262 264 265 266 267 268 269 270 272 273 275 276 278 279 280 282 283 284 285 285 286 287 288 288 289 290 291 291 292 293 293 294 294 295 295 296 296 296 296 297 297 297 297 297 296 296 296 296 296 296 296 295 295 295 295 295 295 295 296 296 296 296 297 297 297 297 297 298 298 298 298 298 298 298 297 297 296 296 296